Time,TemperatureF,DewpointF,PressureIn,WindDirection,WindDirectionDegrees,WindSpeedMPH,WindSpeedGustMPH,Humidity,HourlyPrecipIn,Conditions,Clouds,dailyrainin,SoftwareType,DateUTC
2013-06-22 00:01:00,73.1,66.6,30.09,SE,135,0.5,1.1,80,0.00,,,0.00,WUHU216HW,2013-06-22 05:01:00,
2013-06-22 00:06:00,73.1,66.6,30.08,SE,135,0.2,0.9,80,0.00,,,0.00,WUHU216HW,2013-06-22 05:06:00,
2013-06-22 00:11:00,72.9,66.4,30.08,SSE,158,0.3,0.4,80,0.00,,,0.00,WUHU216HW,2013-06-22 05:11:00,
2013-06-22 00:16:00,72.9,66.8,30.08,SE,135,0.0,0.4,81,0.00,,,0.00,WUHU216HW,2013-06-22 05:16:00,
2013-06-22 00:21:00,72.7,66.2,30.08,SE,135,0.0,0.2,80,0.00,,,0.00,WUHU216HW,2013-06-22 05:21:00,
2013-06-22 00:26:00,72.7,66.6,30.08,SE,135,0.2,0.2,81,0.00,,,0.00,WUHU216HW,2013-06-22 05:26:00,
2013-06-22 00:31:00,72.7,66.6,30.08,SE,135,0.2,0.9,81,0.00,,,0.00,WUHU216HW,2013-06-22 05:31:00,
2013-06-22 00:36:00,72.7,66.6,30.08,SE,135,0.2,0.9,81,0.00,,,0.00,WUHU216HW,2013-06-22 05:36:00,
2013-06-22 00:41:00,72.5,66.4,30.08,SE,135,0.0,0.2,81,0.00,,,0.00,WUHU216HW,2013-06-22 05:41:00,
2013-06-22 00:46:00,72.4,65.9,30.08,SE,135,0.0,0.2,80,0.00,,,0.00,WUHU216HW,2013-06-22 05:46:00,
2013-06-22 00:51:00,72.4,65.9,30.08,ESE,113,0.9,0.9,80,0.00,,,0.00,WUHU216HW,2013-06-22 05:51:00,
2013-06-22 00:56:00,72.2,65.7,30.08,SE,135,0.0,1.1,80,0.00,,,0.00,WUHU216HW,2013-06-22 05:56:00,
2013-06-22 01:01:00,72.2,65.7,30.07,SE,135,0.0,1.1,80,0.00,,,0.00,WUHU216HW,2013-06-22 06:01:00,
2013-06-22 01:06:00,72.0,65.5,30.07,SSE,158,0.2,0.4,80,0.00,,,0.00,WUHU216HW,2013-06-22 06:06:00,
2013-06-22 01:11:00,71.8,65.7,30.07,SE,135,0.0,0.4,81,0.00,,,0.00,WUHU216HW,2013-06-22 06:11:00,
2013-06-22 01:16:00,71.6,65.5,30.07,South,180,0.0,0.4,81,0.00,,,0.00,WUHU216HW,2013-06-22 06:16:00,
2013-06-22 01:21:00,71.6,65.5,30.07,South,180,1.6,1.6,81,0.00,,,0.00,WUHU216HW,2013-06-22 06:21:00,
2013-06-22 01:26:00,71.6,65.9,30.06,South,186,0.6,1.6,82,0.00,,,0.00,WUHU216HW,2013-06-22 06:26:00,
2013-06-22 01:31:00,71.6,65.9,30.06,SSW,203,0.2,1.1,82,0.00,,,0.00,WUHU216HW,2013-06-22 06:31:00,
2013-06-22 01:36:00,71.5,65.7,30.06,SSE,158,1.8,1.8,82,0.00,,,0.00,WUHU216HW,2013-06-22 06:36:00,
2013-06-22 01:41:00,71.5,66.0,30.06,SSW,203,0.4,1.8,83,0.00,,,0.00,WUHU216HW,2013-06-22 06:41:00,
2013-06-22 01:46:00,71.3,65.8,30.06,SE,141,1.5,2.5,83,0.00,,,0.00,WUHU216HW,2013-06-22 06:46:00,
2013-06-22 01:51:00,71.3,65.8,30.05,SE,139,1.0,2.5,83,0.00,,,0.00,WUHU216HW,2013-06-22 06:51:00,
2013-06-22 01:56:00,71.3,65.8,30.05,SE,135,1.7,2.5,83,0.00,,,0.00,WUHU216HW,2013-06-22 06:56:00,
2013-06-22 02:01:00,71.3,65.8,30.05,South,180,1.6,2.2,83,0.00,,,0.00,WUHU216HW,2013-06-22 07:01:00,
2013-06-22 02:06:00,71.3,65.8,30.04,SSE,158,2.2,2.2,83,0.00,,,0.00,WUHU216HW,2013-06-22 07:06:00,
2013-06-22 02:11:00,71.5,66.3,30.04,SE,137,1.9,3.4,84,0.00,,,0.00,WUHU216HW,2013-06-22 07:11:00,
2013-06-22 02:16:00,71.3,66.2,30.04,SE,126,1.1,3.4,84,0.00,,,0.00,WUHU216HW,2013-06-22 07:16:00,
2013-06-22 02:21:00,71.3,65.8,30.04,SSE,166,1.5,2.2,83,0.00,,,0.00,WUHU216HW,2013-06-22 07:21:00,
2013-06-22 02:26:00,71.1,65.6,30.04,SSW,211,0.6,2.2,83,0.00,,,0.00,WUHU216HW,2013-06-22 07:26:00,
2013-06-22 02:31:00,70.9,65.4,30.04,SSW,202,1.3,4.3,83,0.00,,,0.00,WUHU216HW,2013-06-22 07:31:00,
2013-06-22 02:36:00,70.9,65.8,30.03,SW,225,1.8,4.3,84,0.00,,,0.00,WUHU216HW,2013-06-22 07:36:00,
2013-06-22 02:41:00,70.9,65.8,30.03,South,189,0.9,1.8,84,0.00,,,0.00,WUHU216HW,2013-06-22 07:41:00,
2013-06-22 02:46:00,70.7,65.6,30.03,South,180,1.3,1.6,84,0.00,,,0.00,WUHU216HW,2013-06-22 07:46:00,
2013-06-22 02:51:00,70.7,65.6,30.03,North,0,0.4,2.0,84,0.00,,,0.00,WUHU216HW,2013-06-22 07:51:00,
2013-06-22 02:56:00,70.7,65.6,30.03,West,279,1.0,2.0,84,0.00,,,0.00,WUHU216HW,2013-06-22 07:56:00,
2013-06-22 03:01:00,70.7,65.6,30.03,SW,225,1.8,2.2,84,0.00,,,0.00,WUHU216HW,2013-06-22 08:01:00,
2013-06-22 03:06:00,70.6,65.4,30.03,SSW,203,1.1,2.2,84,0.00,,,0.00,WUHU216HW,2013-06-22 08:06:00,
2013-06-22 03:11:00,70.6,65.8,30.03,SSW,203,0.4,1.8,85,0.00,,,0.00,WUHU216HW,2013-06-22 08:11:00,
2013-06-22 03:16:00,70.7,66.0,30.03,South,180,0.2,0.4,85,0.00,,,0.00,WUHU216HW,2013-06-22 08:16:00,
2013-06-22 03:21:00,70.7,66.0,30.03,WNW,293,0.7,1.1,85,0.00,,,0.00,WUHU216HW,2013-06-22 08:21:00,
2013-06-22 03:26:00,70.7,66.0,30.03,SSW,203,1.1,1.1,85,0.00,,,0.00,WUHU216HW,2013-06-22 08:26:00,
2013-06-22 03:31:00,70.7,66.0,30.04,SSE,162,0.3,1.1,85,0.00,,,0.00,WUHU216HW,2013-06-22 08:31:00,
2013-06-22 03:36:00,70.9,66.5,30.03,South,180,0.4,0.9,86,0.00,,,0.00,WUHU216HW,2013-06-22 08:36:00,
2013-06-22 03:41:00,70.9,66.2,30.03,SW,225,0.2,0.9,85,0.00,,,0.00,WUHU216HW,2013-06-22 08:41:00,
2013-06-22 03:46:00,70.9,66.5,30.04,SSW,203,1.1,1.1,86,0.00,,,0.00,WUHU216HW,2013-06-22 08:46:00,
2013-06-22 03:51:00,70.9,66.2,30.03,SSE,158,0.7,1.1,85,0.00,,,0.00,WUHU216HW,2013-06-22 08:51:00,
2013-06-22 03:56:00,70.9,66.5,30.04,SSW,203,0.4,1.1,86,0.00,,,0.00,WUHU216HW,2013-06-22 08:56:00,
2013-06-22 04:01:00,71.1,66.7,30.04,South,180,0.7,1.1,86,0.00,,,0.00,WUHU216HW,2013-06-22 09:01:00,
2013-06-22 04:06:00,71.1,66.7,30.04,SW,233,0.6,1.1,86,0.00,,,0.00,WUHU216HW,2013-06-22 09:06:00,
2013-06-22 04:11:00,71.1,66.7,30.04,SW,225,0.9,1.1,86,0.00,,,0.00,WUHU216HW,2013-06-22 09:11:00,
2013-06-22 04:16:00,71.3,66.9,30.04,ENE,68,0.4,1.1,86,0.00,,,0.00,WUHU216HW,2013-06-22 09:16:00,
2013-06-22 04:21:00,71.3,66.9,30.04,SSW,203,0.4,0.9,86,0.00,,,0.00,WUHU216HW,2013-06-22 09:21:00,
2013-06-22 04:26:00,71.5,67.1,30.05,SSW,203,0.0,0.9,86,0.00,,,0.00,WUHU216HW,2013-06-22 09:26:00,
2013-06-22 04:31:00,71.6,67.2,30.05,SSW,203,0.3,0.4,86,0.00,,,0.00,WUHU216HW,2013-06-22 09:31:00,
2013-06-22 04:36:00,71.6,67.2,30.05,SW,221,1.1,1.8,86,0.00,,,0.00,WUHU216HW,2013-06-22 09:36:00,
2013-06-22 04:41:00,71.8,67.4,30.05,SSW,203,1.2,1.8,86,0.00,,,0.00,WUHU216HW,2013-06-22 09:41:00,
2013-06-22 04:46:00,72.0,67.6,30.06,NE,45,0.4,1.8,86,0.00,,,0.00,WUHU216HW,2013-06-22 09:46:00,
2013-06-22 04:51:00,72.0,67.6,30.06,SW,216,2.0,2.5,86,0.00,,,0.00,WUHU216HW,2013-06-22 09:51:00,
2013-06-22 04:56:00,72.4,68.0,30.06,SSE,158,0.6,2.5,86,0.00,,,0.00,WUHU216HW,2013-06-22 09:56:00,
2013-06-22 05:01:00,72.4,68.0,30.06,SW,225,2.5,2.5,86,0.00,,,0.00,WUHU216HW,2013-06-22 10:01:00,
2013-06-22 05:06:00,72.4,68.0,30.06,SW,225,1.1,3.6,86,0.00,,,0.00,WUHU216HW,2013-06-22 10:06:00,
2013-06-22 05:11:00,72.5,68.1,30.06,SSW,203,0.7,3.6,86,0.00,,,0.00,WUHU216HW,2013-06-22 10:11:00,
2013-06-22 05:16:00,72.5,68.1,30.06,South,173,0.3,1.8,86,0.00,,,0.00,WUHU216HW,2013-06-22 10:16:00,
2013-06-22 05:21:00,72.5,68.1,30.06,SSW,203,1.8,1.8,86,0.00,,,0.00,WUHU216HW,2013-06-22 10:21:00,
2013-06-22 05:26:00,72.5,68.1,30.06,SSW,203,1.1,1.8,86,0.00,,,0.00,WUHU216HW,2013-06-22 10:26:00,
2013-06-22 05:31:00,72.5,68.1,30.06,SSW,203,0.4,1.8,86,0.00,,,0.00,WUHU216HW,2013-06-22 10:31:00,
2013-06-22 05:36:00,72.5,68.1,30.06,West,261,0.7,1.1,86,0.00,,,0.00,WUHU216HW,2013-06-22 10:36:00,
2013-06-22 05:41:00,72.5,68.1,30.06,South,180,0.2,1.1,86,0.00,,,0.00,WUHU216HW,2013-06-22 10:41:00,
2013-06-22 05:46:00,72.5,68.1,30.06,SSW,203,1.6,1.6,86,0.00,,,0.00,WUHU216HW,2013-06-22 10:46:00,
2013-06-22 05:51:00,72.7,68.3,30.06,SSW,203,1.1,1.8,86,0.00,,,0.00,WUHU216HW,2013-06-22 10:51:00,
2013-06-22 05:56:00,72.7,68.3,30.06,SSE,158,1.6,1.8,86,0.00,,,0.00,WUHU216HW,2013-06-22 10:56:00,
2013-06-22 06:01:00,72.7,68.3,30.06,SSW,203,2.0,2.0,86,0.00,,,0.00,WUHU216HW,2013-06-22 11:01:00,
2013-06-22 06:06:00,72.9,68.5,30.06,SSW,203,1.2,2.2,86,0.00,,,0.00,WUHU216HW,2013-06-22 11:06:00,
2013-06-22 06:11:00,73.1,68.7,30.06,South,180,2.7,2.7,86,0.00,,,0.00,WUHU216HW,2013-06-22 11:11:00,
2013-06-22 06:16:00,73.1,69.0,30.06,SW,225,2.5,2.7,87,0.00,,,0.00,WUHU216HW,2013-06-22 11:16:00,
2013-06-22 06:21:00,73.4,69.4,30.07,SSW,203,2.5,2.5,87,0.00,,,0.00,WUHU216HW,2013-06-22 11:21:00,
2013-06-22 06:26:00,73.4,69.0,30.07,SSW,203,0.3,2.5,86,0.00,,,0.00,WUHU216HW,2013-06-22 11:26:00,
2013-06-22 06:31:00,73.6,69.2,30.07,SSW,203,0.9,2.0,86,0.00,,,0.00,WUHU216HW,2013-06-22 11:31:00,
2013-06-22 06:36:00,73.8,69.4,30.07,SSW,211,1.6,2.0,86,0.00,,,0.00,WUHU216HW,2013-06-22 11:36:00,
2013-06-22 06:41:00,73.8,69.4,30.07,South,180,1.8,2.0,86,0.00,,,0.00,WUHU216HW,2013-06-22 11:41:00,
2013-06-22 06:46:00,74.0,69.6,30.07,SSW,212,0.6,2.7,86,0.00,,,0.00,WUHU216HW,2013-06-22 11:46:00,
2013-06-22 06:51:00,74.2,69.8,30.07,North,0,0.7,2.7,86,0.00,,,0.00,WUHU216HW,2013-06-22 11:51:00,
2013-06-22 06:56:00,74.3,69.9,30.08,SSW,203,1.8,1.8,86,0.00,,,0.00,WUHU216HW,2013-06-22 11:56:00,
2013-06-22 07:01:00,74.5,70.1,30.08,SSW,203,1.1,1.8,86,0.00,,,0.00,WUHU216HW,2013-06-22 12:01:00,
2013-06-22 07:06:00,74.7,70.3,30.08,SSW,203,1.1,1.8,86,0.00,,,0.00,WUHU216HW,2013-06-22 12:06:00,
2013-06-22 07:11:00,74.9,70.1,30.08,SSW,203,1.5,1.8,85,0.00,,,0.00,WUHU216HW,2013-06-22 12:11:00,
2013-06-22 07:16:00,75.1,70.3,30.08,SSW,203,1.3,2.2,85,0.00,,,0.00,WUHU216HW,2013-06-22 12:16:00,
2013-06-22 07:21:00,75.2,70.5,30.07,SSW,213,2.3,2.5,85,0.00,,,0.00,WUHU216HW,2013-06-22 12:21:00,
2013-06-22 07:26:00,75.4,70.7,30.07,South,180,2.0,2.5,85,0.00,,,0.00,WUHU216HW,2013-06-22 12:26:00,
2013-06-22 07:31:00,75.8,71.0,30.07,SSW,208,1.5,2.7,85,0.00,,,0.00,WUHU216HW,2013-06-22 12:31:00,
2013-06-22 07:36:00,76.1,71.3,30.07,SSW,203,4.0,4.0,85,0.00,,,0.00,WUHU216HW,2013-06-22 12:36:00,
2013-06-22 07:41:00,76.7,71.5,30.07,SW,225,4.3,4.5,84,0.00,,,0.00,WUHU216HW,2013-06-22 12:41:00,
2013-06-22 07:46:00,77.0,71.5,30.07,SW,219,3.3,4.9,83,0.00,,,0.00,WUHU216HW,2013-06-22 12:46:00,
2013-06-22 07:51:00,77.4,71.5,30.08,South,170,4.3,4.9,82,0.00,,,0.00,WUHU216HW,2013-06-22 12:51:00,
2013-06-22 07:56:00,77.8,71.8,30.07,SSW,203,3.1,4.7,82,0.00,,,0.00,WUHU216HW,2013-06-22 12:56:00,
2013-06-22 08:01:00,78.5,72.2,30.08,SW,227,3.7,4.7,81,0.00,,,0.00,WUHU216HW,2013-06-22 13:01:00,
2013-06-22 08:06:00,78.8,72.2,30.07,SSW,203,3.8,5.4,80,0.00,,,0.00,WUHU216HW,2013-06-22 13:06:00,
2013-06-22 08:11:00,79.2,72.2,30.08,SW,219,4.0,5.8,79,0.00,,,0.00,WUHU216HW,2013-06-22 13:11:00,
2013-06-22 08:16:00,79.4,71.9,30.08,South,180,1.5,5.8,78,0.00,,,0.00,WUHU216HW,2013-06-22 13:16:00,
2013-06-22 08:21:00,79.6,72.1,30.08,South,180,2.1,3.4,78,0.00,,,0.00,WUHU216HW,2013-06-22 13:21:00,
2013-06-22 08:26:00,79.7,72.3,30.08,South,180,2.5,4.3,78,0.00,,,0.00,WUHU216HW,2013-06-22 13:26:00,
2013-06-22 08:31:00,80.3,72.8,30.08,SSW,212,2.2,5.6,78,0.00,,,0.00,WUHU216HW,2013-06-22 13:31:00,
2013-06-22 08:36:00,80.3,72.5,30.08,SSW,203,4.9,5.8,77,0.00,,,0.00,WUHU216HW,2013-06-22 13:36:00,
2013-06-22 08:41:00,80.5,72.6,30.08,SSW,203,4.3,5.8,77,0.00,,,0.00,WUHU216HW,2013-06-22 13:41:00,
2013-06-22 08:46:00,80.6,72.4,30.08,South,180,1.8,4.9,76,0.00,,,0.00,WUHU216HW,2013-06-22 13:46:00,
2013-06-22 08:51:00,80.8,72.5,30.08,SSW,208,3.2,3.6,76,0.00,,,0.00,WUHU216HW,2013-06-22 13:51:00,
2013-06-22 08:56:00,81.4,73.1,30.08,South,190,4.7,5.1,76,0.00,,,0.00,WUHU216HW,2013-06-22 13:56:00,
2013-06-22 09:01:00,81.9,74.0,30.08,SSE,158,5.4,5.4,77,0.00,,,0.00,WUHU216HW,2013-06-22 14:01:00,
2013-06-22 09:06:00,82.6,74.3,30.07,South,180,4.9,5.4,76,0.00,,,0.00,WUHU216HW,2013-06-22 14:06:00,
2013-06-22 09:11:00,82.8,74.1,30.07,East,90,1.3,4.9,75,0.00,,,0.00,WUHU216HW,2013-06-22 14:11:00,
2013-06-22 09:16:00,83.5,74.4,30.07,SSW,203,3.4,3.4,74,0.00,,,0.00,WUHU216HW,2013-06-22 14:16:00,
2013-06-22 09:21:00,83.7,74.1,30.07,SW,225,3.4,3.4,73,0.00,,,0.00,WUHU216HW,2013-06-22 14:21:00,
2013-06-22 09:26:00,83.9,73.9,30.07,SSW,203,6.3,6.3,72,0.00,,,0.00,WUHU216HW,2013-06-22 14:26:00,
2013-06-22 09:31:00,84.2,74.3,30.07,SSW,203,3.4,6.3,72,0.00,,,0.00,WUHU216HW,2013-06-22 14:31:00,
2013-06-22 09:36:00,84.8,74.8,30.07,SE,135,4.5,4.7,72,0.00,,,0.00,WUHU216HW,2013-06-22 14:36:00,
2013-06-22 09:41:00,85.1,75.2,30.07,South,189,1.4,4.5,72,0.00,,,0.00,WUHU216HW,2013-06-22 14:41:00,
2013-06-22 09:46:00,85.3,74.9,30.07,SW,225,4.3,5.1,71,0.00,,,0.00,WUHU216HW,2013-06-22 14:46:00,
2013-06-22 09:51:00,85.5,74.7,30.07,SSW,204,2.7,6.9,70,0.00,,,0.00,WUHU216HW,2013-06-22 14:51:00,
2013-06-22 09:56:00,85.7,74.9,30.07,SSW,203,5.4,6.9,70,0.00,,,0.00,WUHU216HW,2013-06-22 14:56:00,
2013-06-22 10:01:00,85.9,75.1,30.07,SSW,197,2.3,7.4,70,0.00,,,0.00,WUHU216HW,2013-06-22 15:01:00,
2013-06-22 10:07:00,86.4,75.6,30.07,SSW,203,1.1,7.4,70,0.00,,,0.00,WUHU216HW,2013-06-22 15:07:00,
2013-06-22 10:12:00,86.8,75.4,30.07,South,180,4.6,5.6,69,0.00,,,0.00,WUHU216HW,2013-06-22 15:12:00,
2013-06-22 10:17:00,87.1,75.3,30.08,SW,215,4.1,5.6,68,0.00,,,0.00,WUHU216HW,2013-06-22 15:17:00,
2013-06-22 10:22:00,87.3,75.4,30.07,SW,225,2.5,4.7,68,0.00,,,0.00,WUHU216HW,2013-06-22 15:22:00,
2013-06-22 10:27:00,87.7,75.8,30.07,South,180,4.7,5.4,68,0.00,,,0.00,WUHU216HW,2013-06-22 15:27:00,
2013-06-22 10:32:00,87.8,75.5,30.07,SSE,166,3.4,7.4,67,0.00,,,0.00,WUHU216HW,2013-06-22 15:32:00,
2013-06-22 10:37:00,87.8,75.5,30.07,SSW,203,2.9,7.4,67,0.00,,,0.00,WUHU216HW,2013-06-22 15:37:00,
2013-06-22 10:42:00,88.2,75.4,30.07,SSE,156,3.7,7.2,66,0.00,,,0.00,WUHU216HW,2013-06-22 15:42:00,
2013-06-22 10:47:00,88.6,76.2,30.07,ESE,113,5.4,7.2,67,0.00,,,0.00,WUHU216HW,2013-06-22 15:47:00,
2013-06-22 10:52:00,89.3,77.0,30.07,SSW,194,2.8,5.4,67,0.00,,,0.00,WUHU216HW,2013-06-22 15:52:00,
2013-06-22 10:57:00,89.1,75.8,30.08,SW,225,2.5,4.0,65,0.00,,,0.00,WUHU216HW,2013-06-22 15:57:00,
2013-06-22 11:02:00,88.9,75.6,30.08,West,274,3.8,4.0,65,0.00,,,0.00,WUHU216HW,2013-06-22 16:02:00,
2013-06-22 11:07:00,88.4,75.2,30.08,South,180,3.1,4.7,65,0.00,,,0.00,WUHU216HW,2013-06-22 16:07:00,
2013-06-22 11:12:00,88.4,75.2,30.08,South,180,4.0,4.7,65,0.00,,,0.00,WUHU216HW,2013-06-22 16:12:00,
2013-06-22 11:17:00,88.2,75.0,30.08,West,270,2.0,4.7,65,0.00,,,0.00,WUHU216HW,2013-06-22 16:17:00,
2013-06-22 11:22:00,88.2,75.0,30.08,South,187,3.8,6.9,65,0.00,,,0.00,WUHU216HW,2013-06-22 16:22:00,
2013-06-22 11:27:00,88.2,75.0,30.08,SSW,203,3.6,6.9,65,0.00,,,0.00,WUHU216HW,2013-06-22 16:27:00,
2013-06-22 11:32:00,88.2,75.0,30.09,SSW,203,2.7,4.0,65,0.00,,,0.00,WUHU216HW,2013-06-22 16:32:00,
2013-06-22 11:37:00,87.7,74.4,30.10,South,180,1.1,4.0,65,0.00,,,0.00,WUHU216HW,2013-06-22 16:37:00,
2013-06-22 11:42:00,87.3,74.1,30.10,NNW,338,0.4,2.7,65,0.00,,,0.00,WUHU216HW,2013-06-22 16:42:00,
2013-06-22 11:47:00,84.4,67.5,30.13,North,11,5.0,8.9,57,0.00,,,0.00,WUHU216HW,2013-06-22 16:47:00,
2013-06-22 11:52:00,79.4,65.7,30.12,North,0,4.0,8.9,63,0.00,,,0.00,WUHU216HW,2013-06-22 16:52:00,
2013-06-22 11:57:00,76.9,65.1,30.12,North,0,4.2,6.3,67,0.00,,,0.00,WUHU216HW,2013-06-22 16:57:00,
2013-06-22 12:02:00,74.5,66.5,30.12,North,0,6.5,7.6,76,0.06,,,0.04,WUHU216HW,2013-06-22 17:02:00,
2013-06-22 12:07:00,72.2,66.4,30.12,North,352,6.3,8.5,82,0.10,,,0.10,WUHU216HW,2013-06-22 17:07:00,
2013-06-22 12:12:00,70.7,66.7,30.11,West,270,8.9,8.9,87,0.23,,,0.21,WUHU216HW,2013-06-22 17:12:00,
2013-06-22 12:17:00,70.4,66.6,30.11,NNW,338,4.0,8.9,88,0.30,,,0.31,WUHU216HW,2013-06-22 17:17:00,
2013-06-22 12:22:00,70.0,66.2,30.12,North,0,6.5,6.9,88,0.33,,,0.33,WUHU216HW,2013-06-22 17:22:00,
2013-06-22 12:27:00,69.7,66.2,30.13,NNW,341,3.5,7.2,89,0.39,,,0.38,WUHU216HW,2013-06-22 17:27:00,
2013-06-22 12:32:00,69.7,66.6,30.15,North,0,4.3,7.2,90,0.55,,,0.51,WUHU216HW,2013-06-22 17:32:00,
2013-06-22 12:37:00,69.7,65.9,30.17,North,11,0.8,4.5,88,0.64,,,0.63,WUHU216HW,2013-06-22 17:37:00,
2013-06-22 12:42:00,69.7,65.9,30.17,West,270,0.0,4.5,88,0.67,,,0.67,WUHU216HW,2013-06-22 17:42:00,
2013-06-22 12:47:00,69.7,65.9,30.17,NNW,338,0.4,1.1,88,0.75,,,0.73,WUHU216HW,2013-06-22 17:47:00,
2013-06-22 12:52:00,69.7,66.9,30.16,NNW,338,1.6,1.6,91,0.88,,,0.86,WUHU216HW,2013-06-22 17:52:00,
2013-06-22 12:57:00,69.5,66.1,30.15,NNW,339,1.7,2.2,89,0.98,,,0.99,WUHU216HW,2013-06-22 17:57:00,
2013-06-22 13:02:00,69.1,65.4,30.14,NNW,338,1.1,2.2,88,0.96,,,1.04,WUHU216HW,2013-06-22 18:02:00,
2013-06-22 13:07:00,69.1,65.4,30.14,SE,137,0.6,1.3,88,0.96,,,1.07,WUHU216HW,2013-06-22 18:07:00,
2013-06-22 13:12:00,68.9,65.3,30.14,South,180,1.6,1.8,88,0.82,,,1.13,WUHU216HW,2013-06-22 18:12:00,
2013-06-22 13:17:00,68.8,65.1,30.14,South,180,2.2,4.5,88,0.81,,,1.14,WUHU216HW,2013-06-22 18:17:00,
2013-06-22 13:22:00,68.6,64.9,30.12,South,188,1.9,4.5,88,0.79,,,1.15,WUHU216HW,2013-06-22 18:22:00,
2013-06-22 13:27:00,68.4,64.7,30.11,SW,225,2.2,2.5,88,0.75,,,1.15,WUHU216HW,2013-06-22 18:27:00,
2013-06-22 13:32:00,68.4,65.0,30.10,SSW,203,1.8,2.5,89,0.52,,,1.15,WUHU216HW,2013-06-22 18:32:00,
2013-06-22 13:37:00,68.4,65.0,30.10,SSW,203,0.7,2.0,89,0.49,,,1.15,WUHU216HW,2013-06-22 18:37:00,
2013-06-22 13:42:00,68.4,65.0,30.10,SSW,203,0.7,2.0,89,0.46,,,1.15,WUHU216HW,2013-06-22 18:42:00,
2013-06-22 13:47:00,68.4,65.0,30.10,SSW,203,2.5,2.5,89,0.39,,,1.15,WUHU216HW,2013-06-22 18:47:00,
2013-06-22 13:52:00,68.6,65.5,30.11,South,180,3.8,4.0,90,0.16,,,1.15,WUHU216HW,2013-06-22 18:52:00,
2013-06-22 13:57:00,68.6,65.5,30.09,East,98,0.6,4.0,90,0.11,,,1.15,WUHU216HW,2013-06-22 18:57:00,
2013-06-22 14:02:00,68.6,65.5,30.08,SW,225,1.1,1.1,90,0.09,,,1.15,WUHU216HW,2013-06-22 19:02:00,
2013-06-22 14:07:00,68.6,65.5,30.08,SSW,203,0.2,1.1,90,0.06,,,1.15,WUHU216HW,2013-06-22 19:07:00,
2013-06-22 14:12:00,68.8,65.7,30.08,NE,45,0.0,0.7,90,0.01,,,1.15,WUHU216HW,2013-06-22 19:12:00,
2013-06-22 14:17:00,68.8,65.7,30.09,ESE,113,0.7,0.7,90,0.00,,,1.15,WUHU216HW,2013-06-22 19:17:00,
2013-06-22 14:22:00,68.8,66.0,30.10,NE,45,0.9,0.9,91,0.00,,,1.15,WUHU216HW,2013-06-22 19:22:00,
2013-06-22 14:27:00,68.8,66.3,30.10,North,0,1.5,3.4,92,0.00,,,1.15,WUHU216HW,2013-06-22 19:27:00,
2013-06-22 14:32:00,68.9,66.2,30.09,SE,135,1.8,4.9,91,0.00,,,1.15,WUHU216HW,2013-06-22 19:32:00,
2013-06-22 14:37:00,69.1,66.3,30.09,SW,234,0.9,4.9,91,0.00,,,1.15,WUHU216HW,2013-06-22 19:37:00,
2013-06-22 14:42:00,69.1,66.3,30.09,SE,131,2.2,2.5,91,0.00,,,1.15,WUHU216HW,2013-06-22 19:42:00,
2013-06-22 14:47:00,69.3,66.5,30.08,SSE,167,0.6,2.5,91,0.01,,,1.16,WUHU216HW,2013-06-22 19:47:00,
2013-06-22 14:52:00,69.5,66.7,30.08,SE,135,3.8,3.8,91,0.01,,,1.16,WUHU216HW,2013-06-22 19:52:00,
2013-06-22 14:57:00,69.5,66.7,30.07,SW,225,1.5,3.8,91,0.01,,,1.16,WUHU216HW,2013-06-22 19:57:00,
2013-06-22 15:02:00,69.5,66.7,30.06,NNW,338,1.8,1.8,91,0.01,,,1.16,WUHU216HW,2013-06-22 20:02:00,
2013-06-22 15:07:00,69.5,66.7,30.05,SSW,208,0.8,2.5,91,0.02,,,1.17,WUHU216HW,2013-06-22 20:07:00,
2013-06-22 15:12:00,69.5,66.7,30.05,ENE,68,2.5,2.5,91,0.02,,,1.17,WUHU216HW,2013-06-22 20:12:00,
2013-06-22 15:17:00,69.7,66.9,30.04,SSW,203,1.8,2.5,91,0.02,,,1.17,WUHU216HW,2013-06-22 20:17:00,
2013-06-22 15:22:00,69.7,66.9,30.04,SSW,203,2.5,2.5,91,0.02,,,1.17,WUHU216HW,2013-06-22 20:22:00,
2013-06-22 15:27:00,69.8,67.1,30.04,East,90,1.6,2.9,91,0.02,,,1.17,WUHU216HW,2013-06-22 20:27:00,
2013-06-22 15:32:00,70.0,67.2,30.04,South,180,1.1,2.9,91,0.02,,,1.17,WUHU216HW,2013-06-22 20:32:00,
2013-06-22 15:37:00,70.0,67.2,30.04,SW,214,4.3,4.5,91,0.02,,,1.17,WUHU216HW,2013-06-22 20:37:00,
2013-06-22 15:42:00,70.0,67.2,30.04,WSW,242,3.0,4.5,91,0.02,,,1.17,WUHU216HW,2013-06-22 20:42:00,
2013-06-22 15:47:00,70.0,67.2,30.04,South,181,4.2,4.5,91,0.01,,,1.17,WUHU216HW,2013-06-22 20:47:00,
2013-06-22 15:52:00,70.0,67.2,30.04,SW,234,1.5,4.3,91,0.01,,,1.17,WUHU216HW,2013-06-22 20:52:00,
2013-06-22 15:57:00,70.0,67.2,30.04,SW,220,1.9,2.9,91,0.01,,,1.17,WUHU216HW,2013-06-22 20:57:00,
2013-06-22 16:02:00,70.2,67.4,30.04,SSW,203,1.7,3.1,91,0.00,,,1.17,WUHU216HW,2013-06-22 21:02:00,
2013-06-22 16:07:00,70.2,67.4,30.03,SW,225,2.2,4.0,91,0.00,,,1.17,WUHU216HW,2013-06-22 21:07:00,
2013-06-22 16:12:00,70.2,67.4,30.03,SSW,203,3.3,4.0,91,0.00,,,1.17,WUHU216HW,2013-06-22 21:12:00,
2013-06-22 16:17:00,70.2,67.4,30.03,SSE,158,4.0,5.4,91,0.00,,,1.17,WUHU216HW,2013-06-22 21:17:00,
2013-06-22 16:22:00,70.2,67.4,30.03,South,180,1.2,5.4,91,0.00,,,1.17,WUHU216HW,2013-06-22 21:22:00,
2013-06-22 16:27:00,70.2,67.4,30.03,SSW,193,1.5,2.2,91,0.00,,,1.17,WUHU216HW,2013-06-22 21:27:00,
2013-06-22 16:32:00,70.2,67.4,30.03,SSE,165,2.0,2.7,91,0.00,,,1.17,WUHU216HW,2013-06-22 21:32:00,
2013-06-22 16:37:00,70.2,67.4,30.03,West,270,3.6,3.8,91,0.00,,,1.17,WUHU216HW,2013-06-22 21:37:00,
2013-06-22 16:42:00,70.2,67.4,30.02,SSW,203,4.7,4.7,91,0.00,,,1.17,WUHU216HW,2013-06-22 21:42:00,
2013-06-22 16:47:00,70.2,67.4,30.02,South,180,5.4,5.4,91,0.00,,,1.17,WUHU216HW,2013-06-22 21:47:00,
2013-06-22 16:52:00,70.2,67.4,30.03,SSW,203,5.6,5.6,91,0.00,,,1.17,WUHU216HW,2013-06-22 21:52:00,
2013-06-22 16:57:00,70.2,67.4,30.03,SSW,195,3.0,5.6,91,0.00,,,1.17,WUHU216HW,2013-06-22 21:57:00,
2013-06-22 17:02:00,70.2,67.4,30.03,SW,225,3.6,4.9,91,0.00,,,1.17,WUHU216HW,2013-06-22 22:02:00,
2013-06-22 17:07:00,70.2,67.4,30.03,South,180,3.4,4.9,91,0.00,,,1.17,WUHU216HW,2013-06-22 22:07:00,
2013-06-22 17:12:00,70.2,67.4,30.02,South,190,3.0,4.9,91,0.00,,,1.17,WUHU216HW,2013-06-22 22:12:00,
2013-06-22 17:17:00,70.2,67.4,30.02,South,180,4.5,4.9,91,0.00,,,1.17,WUHU216HW,2013-06-22 22:17:00,
2013-06-22 17:22:00,70.2,67.4,30.02,South,180,3.1,4.9,91,0.00,,,1.17,WUHU216HW,2013-06-22 22:22:00,
2013-06-22 17:27:00,70.2,67.4,30.02,South,180,2.0,3.4,91,0.00,,,1.17,WUHU216HW,2013-06-22 22:27:00,
2013-06-22 17:32:00,70.2,67.1,30.03,SSW,203,3.5,4.0,90,0.00,,,1.17,WUHU216HW,2013-06-22 22:32:00,
2013-06-22 17:37:00,70.4,67.3,30.04,SSW,203,2.0,4.0,90,0.00,,,1.17,WUHU216HW,2013-06-22 22:37:00,
2013-06-22 17:42:00,70.6,67.5,30.04,South,180,2.2,4.3,90,0.00,,,1.17,WUHU216HW,2013-06-22 22:42:00,
2013-06-22 17:47:00,70.6,67.1,30.04,SSW,203,2.5,4.3,89,0.00,,,1.17,WUHU216HW,2013-06-22 22:47:00,
2013-06-22 17:52:00,70.6,67.1,30.03,SSW,203,6.7,6.7,89,0.00,,,1.17,WUHU216HW,2013-06-22 22:52:00,
2013-06-22 17:57:00,70.7,67.0,30.02,SSW,203,1.8,6.7,88,0.00,,,1.17,WUHU216HW,2013-06-22 22:57:00,
2013-06-22 18:02:00,70.7,67.0,30.02,SSW,194,3.3,5.4,88,0.00,,,1.17,WUHU216HW,2013-06-22 23:02:00,
2013-06-22 18:07:00,70.7,67.3,30.01,SSE,158,4.0,4.0,89,0.00,,,1.17,WUHU216HW,2013-06-22 23:07:00,
2013-06-22 18:12:00,70.7,67.3,30.02,SSW,196,3.9,5.6,89,0.00,,,1.17,WUHU216HW,2013-06-22 23:12:00,
2013-06-22 18:17:00,70.7,67.0,30.03,SSW,203,1.1,5.6,88,0.00,,,1.17,WUHU216HW,2013-06-22 23:17:00,
2013-06-22 18:22:00,70.7,67.3,30.03,South,180,0.4,4.3,89,0.00,,,1.17,WUHU216HW,2013-06-22 23:22:00,
2013-06-22 18:27:00,70.7,67.3,30.03,SE,135,1.8,1.8,89,0.00,,,1.17,WUHU216HW,2013-06-22 23:27:00,
2013-06-22 18:32:00,70.9,67.5,30.04,South,180,1.8,2.5,89,0.00,,,1.17,WUHU216HW,2013-06-22 23:32:00,
2013-06-22 18:37:00,70.9,67.5,30.04,South,180,1.1,2.5,89,0.00,,,1.17,WUHU216HW,2013-06-22 23:37:00,
2013-06-22 18:42:00,71.3,67.9,30.05,SW,221,1.1,2.2,89,0.00,,,1.17,WUHU216HW,2013-06-22 23:42:00,
2013-06-22 18:47:00,71.3,67.9,30.04,SSW,210,1.7,2.2,89,0.00,,,1.17,WUHU216HW,2013-06-22 23:47:00,
2013-06-22 18:52:00,71.1,67.7,30.04,SSW,203,1.3,2.2,89,0.00,,,1.17,WUHU216HW,2013-06-22 23:52:00,
2013-06-22 18:57:00,71.1,67.3,30.04,WSW,248,1.8,2.2,88,0.00,,,1.17,WUHU216HW,2013-06-22 23:57:00,
2013-06-22 19:02:00,71.1,67.3,30.04,SW,225,1.3,2.9,88,0.00,,,1.17,WUHU216HW,2013-06-23 00:02:00,
2013-06-22 19:07:00,70.9,67.5,30.04,SSW,203,1.5,2.9,89,0.00,,,1.17,WUHU216HW,2013-06-23 00:07:00,
2013-06-22 19:12:00,70.9,67.5,30.04,WSW,249,1.7,2.5,89,0.00,,,1.17,WUHU216HW,2013-06-23 00:12:00,
2013-06-22 19:17:00,70.9,67.5,30.04,SE,137,1.0,2.2,89,0.00,,,1.17,WUHU216HW,2013-06-23 00:17:00,
2013-06-22 19:22:00,70.9,67.5,30.04,NW,304,0.8,1.8,89,0.00,,,1.17,WUHU216HW,2013-06-23 00:22:00,
2013-06-22 19:27:00,70.7,67.3,30.04,WSW,239,1.3,2.5,89,0.00,,,1.17,WUHU216HW,2013-06-23 00:27:00,
2013-06-22 19:32:00,70.7,67.3,30.04,SSW,193,1.8,2.5,89,0.00,,,1.17,WUHU216HW,2013-06-23 00:32:00,
2013-06-22 19:37:00,70.7,67.3,30.05,SSW,203,1.8,2.5,89,0.00,,,1.17,WUHU216HW,2013-06-23 00:37:00,
2013-06-22 19:42:00,70.6,67.1,30.05,South,180,2.9,2.9,89,0.00,,,1.17,WUHU216HW,2013-06-23 00:42:00,
2013-06-22 19:47:00,70.6,67.1,30.06,SW,225,1.3,2.9,89,0.00,,,1.17,WUHU216HW,2013-06-23 00:47:00,
2013-06-22 19:52:00,70.4,67.0,30.06,ESE,113,0.7,2.2,89,0.00,,,1.17,WUHU216HW,2013-06-23 00:52:00,
2013-06-22 19:57:00,70.4,67.3,30.07,SSW,203,1.3,2.2,90,0.00,,,1.17,WUHU216HW,2013-06-23 00:57:00,
2013-06-22 20:02:00,70.2,67.1,30.06,South,180,2.9,2.9,90,0.00,,,1.17,WUHU216HW,2013-06-23 01:02:00,
2013-06-22 20:07:00,70.2,67.1,30.06,West,270,1.1,2.9,90,0.00,,,1.17,WUHU216HW,2013-06-23 01:07:00,
2013-06-22 20:12:00,70.2,67.1,30.05,SW,233,1.3,2.0,90,0.00,,,1.17,WUHU216HW,2013-06-23 01:12:00,
2013-06-22 20:17:00,70.2,67.1,30.04,WSW,248,1.8,2.0,90,0.00,,,1.17,WUHU216HW,2013-06-23 01:17:00,
2013-06-22 20:22:00,70.2,67.1,30.03,West,274,1.4,2.5,90,0.00,,,1.17,WUHU216HW,2013-06-23 01:22:00,
2013-06-22 20:27:00,70.2,67.1,30.02,WNW,298,2.0,2.5,90,0.00,,,1.17,WUHU216HW,2013-06-23 01:27:00,
2013-06-22 20:32:00,70.0,67.0,30.01,NW,315,1.3,2.5,90,0.00,,,1.17,WUHU216HW,2013-06-23 01:32:00,
2013-06-22 20:37:00,70.0,66.6,30.00,WSW,242,1.7,3.4,89,0.00,,,1.17,WUHU216HW,2013-06-23 01:37:00,
2013-06-22 20:42:00,70.0,66.6,29.99,South,180,2.5,3.4,89,0.00,,,1.17,WUHU216HW,2013-06-23 01:42:00,
2013-06-22 20:47:00,70.0,66.6,29.99,SSW,203,1.8,4.0,89,0.00,,,1.17,WUHU216HW,2013-06-23 01:47:00,
2013-06-22 20:52:00,70.0,66.2,29.99,SE,135,1.8,4.3,88,0.00,,,1.17,WUHU216HW,2013-06-23 01:52:00,
2013-06-22 20:57:00,69.8,66.1,30.00,SSW,211,1.3,4.3,88,0.00,,,1.17,WUHU216HW,2013-06-23 01:57:00,
2013-06-22 21:02:00,69.8,66.4,30.01,ENE,68,0.4,4.0,89,0.00,,,1.17,WUHU216HW,2013-06-23 02:02:00,
2013-06-22 21:07:00,69.7,66.2,30.01,SSW,203,1.1,1.1,89,0.00,,,1.17,WUHU216HW,2013-06-23 02:07:00,
2013-06-22 21:12:00,69.5,66.1,30.01,SSW,203,0.9,1.8,89,0.00,,,1.17,WUHU216HW,2013-06-23 02:12:00,
2013-06-22 21:17:00,69.5,66.1,30.01,SSW,203,0.2,1.8,89,0.00,,,1.17,WUHU216HW,2013-06-23 02:17:00,
2013-06-22 21:22:00,69.3,65.9,30.01,ESE,113,0.0,0.7,89,0.00,,,1.17,WUHU216HW,2013-06-23 02:22:00,
2013-06-22 21:27:00,69.1,65.7,30.01,South,180,0.7,1.8,89,0.00,,,1.17,WUHU216HW,2013-06-23 02:27:00,
2013-06-22 21:32:00,68.9,65.5,30.01,WSW,248,0.0,1.8,89,0.00,,,1.17,WUHU216HW,2013-06-23 02:32:00,
2013-06-22 21:37:00,68.8,65.7,30.02,NNW,338,0.4,0.7,90,0.00,,,1.17,WUHU216HW,2013-06-23 02:37:00,
2013-06-22 21:42:00,68.8,65.7,30.02,NNW,338,1.3,1.3,90,0.00,,,1.17,WUHU216HW,2013-06-23 02:42:00,
2013-06-22 21:47:00,68.8,65.7,30.02,NNW,338,1.8,1.8,90,0.00,,,1.17,WUHU216HW,2013-06-23 02:47:00,
2013-06-22 21:52:00,68.9,65.9,30.02,NNW,338,1.1,2.5,90,0.00,,,1.17,WUHU216HW,2013-06-23 02:52:00,
2013-06-22 21:57:00,68.9,65.5,30.02,NNW,338,0.2,2.5,89,0.00,,,1.17,WUHU216HW,2013-06-23 02:57:00,
2013-06-22 22:02:00,68.9,65.5,30.01,NNW,338,0.0,0.7,89,0.00,,,1.17,WUHU216HW,2013-06-23 03:02:00,
2013-06-22 22:07:00,68.8,65.7,30.01,NNW,338,0.2,0.4,90,0.00,,,1.17,WUHU216HW,2013-06-23 03:07:00,
2013-06-22 22:12:00,68.6,65.5,30.01,NNW,338,0.4,0.4,90,0.00,,,1.17,WUHU216HW,2013-06-23 03:12:00,
2013-06-22 22:17:00,68.4,65.3,30.01,NNW,338,0.2,0.4,90,0.00,,,1.17,WUHU216HW,2013-06-23 03:17:00,
2013-06-22 22:22:00,68.0,65.0,30.01,NNW,338,0.4,0.4,90,0.00,,,1.17,WUHU216HW,2013-06-23 03:22:00,
2013-06-22 22:27:00,68.0,65.3,30.01,NNW,338,0.4,0.4,91,0.00,,,1.17,WUHU216HW,2013-06-23 03:27:00,
2013-06-22 22:32:00,67.9,65.1,30.01,NNW,338,0.0,0.4,91,0.00,,,1.17,WUHU216HW,2013-06-23 03:32:00,
2013-06-22 22:37:00,67.7,64.9,30.02,NNW,338,0.0,0.4,91,0.00,,,1.17,WUHU216HW,2013-06-23 03:37:00,
2013-06-22 22:42:00,67.5,64.7,30.01,NNW,338,0.4,0.4,91,0.00,,,1.17,WUHU216HW,2013-06-23 03:42:00,
2013-06-22 22:47:00,67.3,64.5,30.02,NNW,338,0.0,0.4,91,0.00,,,1.17,WUHU216HW,2013-06-23 03:47:00,
2013-06-22 22:52:00,67.3,64.5,30.02,NNW,338,0.0,0.0,91,0.00,,,1.17,WUHU216HW,2013-06-23 03:52:00,
2013-06-22 22:57:00,67.1,64.4,30.02,NNW,338,0.0,0.0,91,0.00,,,1.17,WUHU216HW,2013-06-23 03:57:00,
2013-06-22 23:01:00,67.0,64.2,30.02,NNW,338,0.0,0.0,91,0.00,,,1.17,WUHU216HW,2013-06-23 04:01:00,
2013-06-22 23:06:00,66.8,64.0,30.02,NNW,338,0.4,0.4,91,0.00,,,1.17,WUHU216HW,2013-06-23 04:06:00,
2013-06-22 23:11:00,66.8,64.0,30.04,NW,315,0.4,0.4,91,0.00,,,1.17,WUHU216HW,2013-06-23 04:11:00,
2013-06-22 23:16:00,67.0,64.5,30.04,SSE,158,1.8,2.2,92,0.00,,,1.17,WUHU216HW,2013-06-23 04:16:00,
2013-06-22 23:21:00,67.0,64.5,30.04,SE,146,0.8,2.2,92,0.00,,,1.17,WUHU216HW,2013-06-23 04:21:00,
2013-06-22 23:26:00,67.0,64.5,30.04,NE,45,0.2,1.1,92,0.00,,,1.17,WUHU216HW,2013-06-23 04:26:00,
2013-06-22 23:31:00,66.8,64.4,30.04,NE,45,0.0,0.2,92,0.00,,,1.17,WUHU216HW,2013-06-23 04:31:00,
2013-06-22 23:36:00,66.6,64.2,30.04,NE,45,0.0,0.0,92,0.00,,,1.17,WUHU216HW,2013-06-23 04:36:00,
2013-06-22 23:41:00,66.6,64.2,30.05,North,0,0.4,0.4,92,0.00,,,1.17,WUHU216HW,2013-06-23 04:41:00,
2013-06-22 23:46:00,66.6,64.2,30.05,North,0,0.0,0.4,92,0.00,,,1.17,WUHU216HW,2013-06-23 04:46:00,
2013-06-22 23:51:00,66.6,64.2,30.05,NE,45,0.0,0.0,92,0.00,,,1.17,WUHU216HW,2013-06-23 04:51:00,
2013-06-22 23:56:00,66.4,64.0,30.05,SSW,203,0.2,1.1,92,0.00,,,1.17,WUHU216HW,2013-06-23 04:56:00,